Regional Weather Roundup
Issued by NWS

Home | Current Version | Previous Version | Graphics & Text | Print | Product List | Glossary On
Versions: 1 2 3 4 5 6 7 8 9 10 11 12 13 14 15 16 17 18 19 20 21 22 23 24 25 26 27 28 29 30 31 32 33 34 35 36 37 38 39 40 41 42 43 44 45 46 47 48 49 50
000
ASUS43 KFSD 180302
RWRSD

WEATHER ROUNDUP FOR SOUTH DAKOTA
NATIONAL WEATHER SERVICE SIOUX FALLS SD
900 PM CST FRI NOV 17 2017

NOTE: "FAIR" INDICATES FEW OR NO CLOUDS BELOW 12,000 FEET WITH NO
SIGNIFICANT WEATHER AND/OR OBSTRUCTIONS TO VISIBILITY.


SDZ001>005-009-010-012>017-180400-
NORTHWEST AND NORTH CENTRAL SOUTH DAKOTA

CITY           SKY/WX    TMP DP  RH WIND       PRES   REMARKS
BUFFALO          N/A     36  32  85 NW9       29.71R
FAITH            N/A     36  36 100 SW3       29.74S
MOBRIDGE       CLOUDY    33  27  78 CALM      29.73R
$$

SDZ012>016-024>037-041>051-057-063-072>074-180400-
SOUTHWEST AND SOUTH CENTRAL SOUTH DAKOTA

CITY           SKY/WX    TMP DP  RH WIND       PRES   REMARKS
RAPID CTY ARPT MOCLDY    35  34  96 N8        29.78R WCI  29
PIERRE         CLOUDY    38  34  85 SW5       29.75R
CUSTER         CLOUDY    31  25  78 N5        29.74R WCI  26
ELLSWORTH AFB  CLOUDY    36  36 100 NW8       29.78R
PHILIP         LGT RAIN  38  38 100 NW5       29.76R
PINE RIDGE     CLOUDY    38  35  89 N6        29.75R
SPEARFISH      MOCLDY    37  30  75 W17G23    29.79R
WINNER         CLOUDY    40  35  83 NW6       29.73S
$$

SDZ004>011-016>023-039-040-180400-
NORTHEAST SOUTH DAKOTA

CITY           SKY/WX    TMP DP  RH WIND       PRES   REMARKS
ABERDEEN       CLOUDY    30  21  69 N6        29.77R WCI  24
WATERTOWN      CLOUDY    32  26  78 NW7       29.73R WCI  26
BROOKINGS      CLOUDY    34  30  85 N7        29.70R WCI  28
SISSETON         N/A     30  23  75 N10       29.76R WCI  21
$$

SDZ017-020-022-023-036>040-048>070-180400-
SOUTHEAST SOUTH DAKOTA

CITY           SKY/WX    TMP DP  RH WIND       PRES   REMARKS
SIOUX FALLS    CLOUDY    39  33  79 N7        29.67R
HURON          MOCLDY    35  25  66 N12       29.73S WCI  27
CHAMBERLAIN    CLOUDY    42  32  70 N5        29.73S
MITCHELL       CLOUDY    40  32  73 N10       29.72R
YANKTON        LGT RAIN  42  36  79 CALM      29.66S
$$

ABBREVIATIONS USED IN REMARKS
   TC - TEMPERATURE IN CELSIUS
  WCI - WIND CHILL INDEX
   HX - HEAT INDEX
  VSB - VISIBILITY




USA.gov is the U.S. government's official web portal to all federal, state and local government web resources and services.